sat.trackr.live / text

‹ back to catalog

STARLINK-35905

NORAD 67048 · 2025-294U

PAYLOAD ACTIVE UNKNOWN

§ Identity

Operator
Country
US
Launch date
2025-12-11
Launch site
AFETR
Launch vehicle
Mass (kg)
RCS (m²)

Purposes: comms

External: N2YO · Heavens-Above · Gunter

§ Orbital elements

Epoch: 2026-09-20T09:06:33.302304Z

Period
94.27 min
Inclination
43.0051°
Eccentricity
0.0001623
Mean motion
15.27577761 rev/d
Perigee alt
481.9 km
Apogee alt
484.2 km
Semi-major
6,861.2 km
B*
3.9314e-4
RAAN
18.6444°
Arg perigee
262.9613°
Mean anomaly
97.1055°
Rev number
4,457

§ Raw data

STARLINK-359051 67048U 25294U   26263.37955211  .00010571  00000+0  39314-3 0  99952 67048  43.0051  18.6444 0001623 262.9613  97.1055 15.27577761 44573

JSON: /api/v1/satellites/67048 · /tle

For live sub-satellite position, see the globe view (requires WebGL).

§ Visibility from observer

Set your observer location to see the next 7 days of passes ≥ 10°. The values pass through the URL so the page stays shareable.

No JS? Fill the form by hand. The geolocation button needs JavaScript.